This is the latest recevied weather packets stored in our database for station/object G4WLC-1. If no packets are shown the sender has not sent any weather packets the latest 10 day(s).
| Time | Temp. | Humidity | Pressure | Rain* | Wind** | Luminosity | Snow |
|---|---|---|---|---|---|---|---|
| 1777738092 | 13.33° C | 86% | 1013 hPa | 3.3 mm | - | - | - |
| 1777737792 | 13.33° C | 85% | 1013 hPa | 3.05 mm | - | - | - |
| 1777737492 | 13.33° C | 84% | 1013.1 hPa | 2.54 mm | - | - | - |
| 1777737192 | 13.89° C | 84% | 1013.1 hPa | 2.03 mm | - | - | - |
| 1777736892 | 13.89° C | 83% | 1013.1 hPa | 1.52 mm | - | - | - |
| 1777736592 | 14.44° C | 82% | 1013 hPa | 1.02 mm | - | - | - |
| 1777736292 | 15° C | 79% | 1012.9 hPa | 0.51 mm | - | - | - |
| 1777735992 | 15° C | 78% | 1013.1 hPa | 0.25 mm | - | - | - |
| 1777735692 | 15.56° C | 76% | 1013 hPa | 0 mm | - | - | - |
| 1777735392 | 15.56° C | 76% | 1012.8 hPa | 0 mm | - | - | - |
| 1777735092 | 15.56° C | 74% | 1012.9 hPa | 0 mm | - | - | - |
| 1777734792 | 15.56° C | 73% | 1012.8 hPa | 0 mm | - | - | - |
| 1777734492 | 16.11° C | 74% | 1012.8 hPa | 0 mm | - | - | - |
| 1777734192 | 16.11° C | 73% | 1013 hPa | 0 mm | - | - | - |
| 1777733892 | 16.11° C | 72% | 1013.1 hPa | 0 mm | - | - | - |
| 1777733592 | 16.11° C | 74% | 1013.1 hPa | 0 mm | - | - | - |
| 1777733292 | 16.11° C | 69% | 1013.3 hPa | 0 mm | - | - | - |
| 1777732992 | 16.67° C | 72% | 1013.4 hPa | 0 mm | - | - | - |
| 1777732692 | 16.11° C | 71% | 1013.5 hPa | 0 mm | - | - | - |
| 1777732392 | 16.11° C | 72% | 1013.5 hPa | 0 mm | - | - | - |
| 1777732092 | 16.11° C | 70% | 1013.6 hPa | 0 mm | - | - | - |
| 1777731792 | 16.67° C | 72% | 1013.8 hPa | 0 mm | - | - | - |
| 1777731492 | 16.11° C | 71% | 1013.8 hPa | 0 mm | - | - | - |
| 1777731192 | 16.67° C | 71% | 1013.9 hPa | 0 mm | - | - | - |
| 1777730892 | 16.67° C | 70% | 1014.1 hPa | 0 mm | - | - | - |
* Rain latest hour (hover to see other rain measurements)
** Current wind speed in m/s (hover to see current wind gust speed)